Location: Wien
(48.2082°N, 16.3738°E)
Time: 09:18:10
(UTC+02:00)

Transit 4A - Pass Details

Date: 25 February 2024
Orbit: 871 x 971 km, 66.8° (Epoch: 24 April)

Event Time Altitude Azimuth Distance (km) Brightness Sun altitude
Exits shadow 03:17:45 25° 355° (N) 1,762 9.5 -34.4°
Drops below altitude 10° 03:20:58 10° 23° (NNE) 2,582 10.7 -33.9°
Sets 03:23:47 0° 34° (NE) 3,511 11.7 -33.5°
